Regional Weather Roundup
Issued by NWS Green Bay, WI

Home | Current Version | Previous Version | Graphics & Text | Print | Product List | Glossary Off
Versions: 1 2 3 4 5 6 7 8 9 10 11 12 13 14 15 16 17 18 19 20 21 22 23 24 25 26 27 28 29 30 31 32 33 34 35 36 37 38 39 40 41 42 43 44 45 46 47 48 49 50

000
ASUS43 KGRB 132100
RWRGRB

NORTH-CENTRAL AND NORTHEAST WISCONSIN REGIONAL WEATHER ROUNDUP
NATIONAL WEATHER SERVICE GREEN BAY WI
300 PM CST WED DEC 13 2017

WIZ005-009-010>012-018-019-132200-
NORTH CENTRAL WISCONSIN

CITY           SKY/WX    TMP DP  RH WIND       PRES   REMARKS
IRONWOOD       CLOUDY    18  14  84 N3        29.63R
MANITOWISH WTR NOT AVBL
ARBOR VITAE    NOT AVBL
EAGLE RIVER    LGT SNOW  17  12  82 NE12G17   29.53R WCI   4
LAND O LAKES   LGT SNOW  17  13  86 N8        29.56R WCI   6
RHINELANDER    LGT SNOW  17  14  88 NE10G18   29.52R VSB 1   WCI   5
PHILLIPS       LGT SNOW  16  13  89 N13       29.55R WCI   2
ANTIGO         NOT AVBL
TOMAHAWK       LGT SNOW  17  13  84 N6        29.53R WCI   9
MERRILL        LGT SNOW  19  15  85 N12       29.51R WCI   7
$$

WIZ013-073-132200-
NORTHEAST WISCONSIN

CITY           SKY/WX    TMP DP  RH WIND       PRES   REMARKS
IRON MOUNTAIN  LGT SNOW  17  12  80 N14       29.55R VSB 3/4 WCI   3
MARINETTE      LGT SNOW  26  22  84 E20G29    29.51R VSB 1
$$

WIZ017-030-035>037-045-132200-
CENTRAL WISCONSIN

CITY           SKY/WX    TMP DP  RH WIND       PRES   REMARKS
MEDFORD        NOT AVBL
WAUSAU         LGT SNOW  20  17  88 N9        29.46R VSB 1   WCI   9
MOSINEE        LGT SNOW  19  18  93 N16       29.47R WCI   5
MARSHFIELD     LGT SNOW  19  15  84 N14       29.48R VSB 3/4 WCI   6
WISC RAPIDS    FLURRIES  21  16  81 N16G23    29.48R WCI   7
STEVENS POINT  NOT AVBL
WAUPACA        LGT SNOW  27  23  85 NW12      29.41R VSB 3/4
SHAWANO        LGT SNOW  28  24  86 NE18      29.44R
CLINTONVILLE   NOT AVBL
WAUTOMA        LGT SNOW  23  19  85 NW13G18   29.42R FOG
$$

WIZ038-039-048-051-132200-
FOX VALLEY

CITY           SKY/WX    TMP DP  RH WIND       PRES   REMARKS
NWS GREEN BAY  LGT SNOW  27  23  85 NE20      29.42R VSB 3/4
APPLETON       LGT SNOW  27  21  80 NE17G23   29.35R
OSHKOSH        LGT SNOW  26  23  88 NW13      29.34R VSB 1
FOND DU LAC    LGT SNOW  27  22  81 NW12      29.35R
$$

WIZ022-050-052-132200-
EAST CENTRAL WISCONSIN

CITY           SKY/WX    TMP DP  RH WIND       PRES   REMARKS
EPHRAIM        LGT SNOW  23  20  89 E15G23    29.48R VSB 3/4
WASHINGTON ISL NOT AVBL
STURGEON BAY   LGT SNOW  25  23  92 NE13G23   29.46R VSB 3/4
MANITOWOC      LGT SNOW  26  23  88 E13       29.38R VSB 3/4
SHEBOYGAN      LGT SNOW  28  26  92 N9        29.31R FOG
$$

LMZ563-521-522-541>543-132200-
LAKESHORE

STATION/POSITION TIME  TEMP    WIND        PRES    VSBY  WAVE
                       AIR SEA DIR/SP/G                  HT/PER
                 (UTC) (F)     (DEG/KT/KT) (MB)    (MI)  (FT/S)
SHEBOYGAN LKSHOR 2000   29     260/  6/  6  993.1R
KEWAUNEE LKSHORE 2030   26      90/ 14/ 20  995.2R
NORTHPORT PIER   2046   25      60/ 23      999.7R
MENOMINEE LKSHOR 2024   26      50/ 17/ 21  997.9
$$




USA.gov is the U.S. government's official web portal to all federal, state and local government web resources and services.